Location: *
(32.8140°S, 174.6161°E)
Time: 08:28:52
(UTC+00:00)

USA 238 DEB - Pass Details

Date: 10 December 2019
Orbit: 1024 x 1188 km, 63.4° (Epoch: 16 January)

Event Time Altitude Azimuth Distance (km) Brightness Sun altitude
Rises 16:00:03 0° 211° (SSW) 3,903 6.7 -12.5°
Reaches altitude 10° 16:02:45 10° 211° (SSW) 2,920 6.1 -12.1°
Maximum altitude 16:09:39 87° 297° (WNW) 1,054 3.7 -10.9°
Drops below altitude 10° 16:16:18 10° 27° (NNE) 2,816 5.8 -9.8°
Sets 16:18:52 0° 27° (NNE) 3,757 6.5 -9.4°
